Погода в Костюковичи

Погода в Костюковичи : погода сейчас, прогноз погоды и архив. Всё, что Вы хотите узнать о погоде в Костюковичи!

Поиск расширенной информации на нашем сайте:

Другие новости

Новости СМИ2

Главная страница сайта

Новости сайта

02.10.2013

Напоминаем, что на нашем новом сайте вы можете получить высокодетализированные прогнозы погоды по пунктам России, СНГ и мира (включающие важные для авиации метеовеличины, такие как направление и скорость ветра, видимость, явления погоды, количество и форма облачности, нижняя и верхняя граница облачности), а также ознакомиться с разнообразными материалами по авиационной метеорологии и подборкой полезных ссылок на эту тему.

Сайт Метеоцентр.Азия посвящён разработке технологий оптимизации авиаметеорологического обслуживания, включая проектирование и перспективное создание нескольких автоматизированных авиаметеорологических систем:
- система выпуска высокодетальных прогностических карт явлений погоды для нижнего воздушного пространства по России и ближнему зарубежью;
- система верификации прогнозов TAF (выпускаемых синоптиками официальных АМСГ РФ и ближнего зарубежья) и AUTOTAF (выпускаемых сайтом Метеоцентр.Азия) - выявление ошибок, онлайн-сопоставление с фактической погодой METAR, автоматическое внесение коррективов в прогнозы при резком отклонении фактической погоды от прогноза, подсчёт оправдываемости прогнозов по элементам и в целом;
- система обработки, анализа и отображения авиаметеорологической информации для применения провайдерами метеорологической информации.

Рекомендуем: церетон

Погода в Костюковичи - сегодня

Время (UTC), дата Ветер
(°,м/с) 
Видим.   Явления Облачность Т
(°С)
Тd
(°С)
f(%) Тe
(°С)
Pmin
(гПа)
dP
(гПа)
Po
(мм)
O2
(г/м3)
Тmin Tmax R s Состояние
почвы
09 22.03.17 190 (Ю) 8000 м  дымка{туман}  10/10 150 м 
[St]
+8.6 +7.5 93 +9  1016.3  0.6  747  291           
12 22.03.17 190 (Ю) 35000 м  {туман}  8/4 1000 м средняя 
[Sc|Ac trans]
+14.4 +8.7 69 +15  1014.7  -1.1  746  284           
15 22.03.17 160 (Ю) 35000 м    9/9 1300 м 
[Sc]
+14.9 +8.1 64 +16  1013.5  -1.2  745  283           
18 22.03.17 160 (Ю) 21000 м  в посл. час дождь  10/10 1440 м 
[Sc]
+11.7 +8.3 80 +13  1013.4  -0.3  745  286    +15.7  0.0     
21 22.03.17 330 (СЗ) 5{11}  11000 м  дождь  10/10 330 м 
[Frnb|Ns]
+6.9 +6 94 +5  1016.7  2.9  747  293           
00 23.03.17 360 (С) 5{12}  35000 м  слаб. дождь{морось}  10/10 800 м 
[Sc]
+3.1 +1.8 91 +1  1019.6  2.5  749  298           
03 23.03.17 360 (С) 4{12}  35000 м  {дождь}  4/4 2000 м средняя 
[Ac trans]
+1.4 +0.6 94 -1  1021.8  751  301         
06 23.03.17 310 (СЗ) 35000 м  {дождь}  4/3 2000 м средняя, верхняя 
[Ac trans|Ci sp]
+2.8 -0.2 81 +1  1024.2  2.4    +0.8       
09 23.03.17 330 (СЗ) 35000 м    3/0 верхняя 
[Ci sp]
+7.6 +0.9 62 +7  1025.1  1.3  753  295           
12 23.03.17 310 (СЗ) 35000 м    3/0 верхняя 
[Ci sp]
+10.3 -1.4 44 +10  1027.6  2.7  755  293           
15 23.03.17 260 (З) 35000 м    6/0 верхняя 
[Ci sp]
+11.3 -3.6 35 +11  1024.6  -2.9  753  292           
18 23.03.17 тихо ()   20000 м    ясно 
+4.8 -0.8 67 +5  1025.4  0.2  753  298    +11.5       
21 23.03.17 тихо ()   11000 м    ясно 
+0.4 -0.9 91 1025.5  -0.1  753  303           
00 24.03.17 070 (В) 35000 м    ясно 
+0.6 -1.7 85 1024.3  -1.2  752  303           
03 24.03.17 050 (СВ) 23000 м    ясно 
+0 -1.6 89 -1  1022  -2.3  751  303           
06 24.03.17 080 (В) 35000 м    10/10 1410 м 
[Sc]
+1.7 -1.8 78 +1  1020.3  -1.5  750  300  -1.2         
09 24.03.17 250 (З) 30000 м    10/10 1350 м 
[Sc]
+5.2 +0.9 74 +6  1018.4  -1.6  748  296           
12 24.03.17 340 (С) 35000 м  {дождь}  10/10 1170 м 
[Sc]
+6.8 +1.8 70 +7  1016.8  -1.4  747  294           
15 24.03.17 310 (СЗ) 6-11  35000 м  слаб. ливневой дождь  10/4 1000 м кучево-дожд., средняя 
[Cb cap|Ac inh]
+7.5 -0.3 58 +5  1016.3  -0.5  747  293      0.0     
18 24.03.17 280 (З) 2{11}  35000 м  {ливн. осадки}  6/0 средняя 
[Ac trans]
+3.6 +0.4 80 +3  1018.5  1.9  748  298    +9.3  0.0     
21 24.03.17 330 (СЗ) 35000 м    ясно 
+2.8 -4.5 59 1020.2  1.6  750  299           
00 25.03.17 310 (СЗ) 3{11}  35000 м    ясно 
+0 -4.4 72 -2  1021.1  0.6  750  303           
03 25.03.17 290 (З) 35000 м    ясно 
-1.8 -5.4 76 -4  1021.8  0.6  750  305           
06 25.03.17 300 (СЗ) 35000 м    3/0 верхняя 
[Ci fib]
-0.2 -6.1 64 -2  1021.8  0.1  751  303  -2.3         
09 25.03.17 320 (СЗ) 35000 м    9/0 верхняя 
[Ci fib]
+3.4 -9.5 38 +1  1020.5  -1  750  299           
Время (UTC), дата Ветер
(°,м/с) 
Видим.   Явления Облачность Т
(°С)
Тd
(°С)
f(%) Тe
(°С)
Pmin
(гПа)
dP
(гПа)
Po
(мм)
O2
(г/м3)
Тmin Tmax R s Состояние
почвы

Для получения пояснительной информации подведите курсор к названию столбца.

ПОГОДА в Костюковичи - архив

Всё, что Вы хотите узнать о погоде в Костюковичи - удобно и подробно!

Выберите нужную дату (начиная с 1 января 2015* года) и нажмите кнопку "Найти".
Будут отображены архивные сводки погоды по пункту Костюковичи, начиная с указанной даты.


Отображать данные в формате CSV (для использования в таблицах Excel)


Внимание! Наш архив погоды предназначен исключительно для личного некоммерческого использования в познавательных целях. Если Вам необходимы официальные справки о состоянии погоды (для производственных, юридических, коммерческих и т.п. целей), обращайтесь в органы Росгидромета.

*Примечание: данная дата относится к архиву по метеостанциям СССР (Россия, СНГ, Балтия).
Архив по метеостанциям Зарубежной Европы и Азии (кроме Китая) хранится 10 дней, по другим регионам земного шара (Китай, Африка, Америка, Австралия, Океания) - 1 день.

Костюковичи - район местоположения метеостанции


Название, широта, долгота, высота метеостанции:
Костюковичи 53.3°ш. 32.1°д. 167 м над ур. моря [Беларусь]

Дополнительная информация

В oтличие oт бoльшинства пoгoдных сайтoв мы публикуем пoдрoбную метеoинфoрмацию в детальнoм прoфессиoнальнoм фoрмате.

Характеристики температуры и влажнoсти вoздуха измеряются на высoте 2 м в тени вдали oт зданий и деревьев.
Скoрoсть ветра измеряется на высoте 10 м (на урoвне рoста челoвека скoрoсть ветра ниже в 1.5-2 раза). Если метеoстанция нахoдится в гoрoде или в лесу, тo скoрoсть ветра занижена на 2-4 м/с пo сравнению с oткрытым местoм. Скoрoсть ветра над акватoриями крупных рек и oзёр, а также на вершинах хoлмoв на 2-5 м/с выше, чем в oбычных услoвиях.
Атмoсфернoе давление в разных тoчках местнoсти мoжет значительнo oтличаться oт давления на метеoстанции, в зависимoсти oт услoвий рельефа (при пoдъёме на 10 м давление пoнижается примернo на 1 мм рт.ст.).